Location: Central Springs Elementary School at Manly
(43.2859°N, 93.1959°W)
Time: 07:49:54
(UTC+00:00)

UNISAT 6 - Pass Details

Date: 07 December 2024
Orbit: 584 x 653 km, 97.7° (Epoch: 18 January)

Event Time Altitude Azimuth Distance (km) Brightness Sun altitude
Rises 23:32:56 0° 0° (N) 2,823 ? -9.9°
Reaches altitude 10° 23:35:21 10° 348° (NNW) 1,922 ? -10.3°
Maximum altitude 23:38:47 26° 292° (WNW) 1,191 ? -10.9°
Drops below altitude 10° 23:42:14 10° 236° (SW) 1,930 ? -11.5°
Sets 23:44:41 0° 223° (SW) 2,839 ? -11.9°
